Location: Godiavel Galaoual
(15.2485°N, 12.6604°W)
Time: 13:30:19
(UTC+00:00)

Cosmos 1697 Rocket - Pass Details

Date: 27 February 2020
Orbit: 831 x 844 km, 71.0° (Epoch: 29 March)

Event Time Altitude Azimuth Distance (km) Brightness Sun altitude
Rises 19:58:24 0° 167° (SSE) 3,362 5.7 -15.4°
Reaches altitude 10° 20:01:19 10° 153° (SSE) 2,429 4.9 -16.1°
Enters shadow 20:04:40 22° 117° (ESE) 1,745 3.9 -16.9°
